DELAWARE BAY NM Southeast of Cape May, NJ (44009)

Conditions for Wednesday

Daily
Weekly
Monthly
Marine Data Graph
Ad Blocker Enabled

Marine & Boating Location Search

Enter a coastal zip code for marine weather.

General Information

Location: 38.461 North -74.703 West
Buoy Type: 3-meter discus buoy
Buoy Hull: 3DV10
Payload: AMPS payload
Owned by: NDBC
Windspeed: Measured by obtained from anemometer
Sea Surface: Measured by Intake
Note: Right whales are active off Delaware Bay from November to April.  Speed restrictions of 10 knots apply to vessels 65 feet or greater in specific areas along the mid-Atlantic coast.  To learn more about right whales and rules protecting them, go to: http://www.nmfs.noaa.gov/pr/shipstrike 

Weather and Wave Data

Time Temp Humidity Wind Dominant Wave Wind Wave Wave Swell Pressure
  Air
(°F)
Water
(°F)
  Dir Speed
(kts)
Speed
(mph)
Period
(sec)
Height
(ft)
Range
(ft)
Period
(sec)
Height
(ft)
Range
(ft)
Period
(sec)
Height
(ft)
Range
(ft)
Atmo.
(in)
Tend.
(in)
20:50 72 71 99 - 3.9 4.5 8 3.61 exactly 3.6 4 1.64 0.82 - 2.46 8 3.28 2.46 - 4.10 30.22 +0.03
21:50 72 70 98 - 0.0 0.0 8 3.61 exactly 3.6 4 1.64 0.82 - 2.46 8 3.28 2.46 - 4.10 30.23 +0.04
22:50 72 69 98 - 1.9 2.2 7 3.28 exactly 3.3 3 1.64 0.82 - 2.46 7 3.28 2.46 - 4.10 30.23 +0.02
23:50 72 69 98 - 7.8 8.9 7 3.28 exactly 3.3 4 1.64 0.82 - 2.46 7 3.28 2.46 - 4.10 30.24 +0.02
00:50 72 69 100 - 9.7 11.2 7 3.28 exactly 3.3 4 1.64 0.82 - 2.46 7 3.28 2.46 - 4.10 30.23 -
01:50 72 69 100 - 11.7 13.4 7 3.61 exactly 3.6 6 1.64 0.82 - 2.46 7 3.28 2.46 - 4.10 30.23 -
02:50 72 69 100 - 9.7 11.2 7 3.28 exactly 3.3 4 1.64 0.82 - 2.46 7 3.28 2.46 - 4.10 30.22 -0.02
03:50 72 69 100 - 7.8 8.9 7 3.61 exactly 3.6 4 1.64 0.82 - 2.46 7 3.28 2.46 - 4.10 30.22 -0.02
04:50 72 70 100 - 11.7 13.4 7 3.28 exactly 3.3 5 1.64 0.82 - 2.46 7 3.28 2.46 - 4.10 30.22 -
05:50 72 70 100 - 9.7 11.2 7 2.95 exactly 3.0 4 1.64 0.82 - 2.46 7 3.28 2.46 - 4.10 30.24 +0.02
06:50 72 71 100 - 7.8 8.9 7 3.28 exactly 3.3 4 1.64 0.82 - 2.46 7 3.28 2.46 - 4.10 30.25 +0.03
07:50 72 71 100 - 5.8 6.7 6 2.95 exactly 3.0 4 1.64 0.82 - 2.46 6 3.28 2.46 - 4.10 30.26 +0.04
08:50 72 71 100 - 5.8 6.7 8 2.95 exactly 3.0 4 1.64 0.82 - 2.46 8 3.28 2.46 - 4.10 30.28 +0.04
09:50 73 71 100 - 7.8 8.9 7 2.62 exactly 2.6 4 1.64 0.82 - 2.46 7 1.64 0.82 - 2.46 30.28 +0.04
10:50 73 71 100 - 9.7 11.2 8 2.62 exactly 2.6 4 1.64 0.82 - 2.46 8 1.64 0.82 - 2.46 30.28 +0.02
11:50 73 71 100 - 9.7 11.2 8 2.95 exactly 3.0 5 1.64 0.82 - 2.46 8 3.28 2.46 - 4.10 30.29 +0.01
12:50 74 72 99 - 11.7 13.4 8 2.95 exactly 3.0 5 1.64 0.82 - 2.46 8 1.64 0.82 - 2.46 30.28 -
13:50 74 72 100 - 11.7 13.4 7 2.95 exactly 3.0 5 1.64 0.82 - 2.46 7 1.64 0.82 - 2.46 30.27 -0.01
14:50 74 72 100 - 11.7 13.4 6 2.95 exactly 3.0 6 1.64 0.82 - 2.46 7 1.64 0.82 - 2.46 30.25 -0.04
15:50 74 72 100 - 11.7 13.4 7 2.62 exactly 2.6 5 1.64 0.82 - 2.46 7 1.64 0.82 - 2.46 30.24 -0.04
16:50 74 73 100 - 11.7 13.4 7 2.95 exactly 3.0 5 1.64 0.82 - 2.46 7 1.64 0.82 - 2.46 30.24 -0.03
17:50 74 72 100 - 11.7 13.4 7 2.95 exactly 3.0 5 1.64 0.82 - 2.46 7 1.64 0.82 - 2.46 30.23 -0.02
18:50 74 72 100 - 11.7 13.4 7 2.95 exactly 3.0 6 1.64 0.82 - 2.46 7 1.64 0.82 - 2.46 30.24 -
19:50 74 72 100 - 11.7 13.4 7 2.95 exactly 3.0 5 1.64 0.82 - 2.46 7 1.64 0.82 - 2.46 30.25 +0.01
20:50 74 72 99 - 11.7 13.4 6 2.62 exactly 2.6 5 1.64 0.82 - 2.46 6 1.64 0.82 - 2.46 30.25 +0.02
21:50 74 72 98 - 11.7 13.4 7 2.62 exactly 2.6 6 1.64 0.82 - 2.46 7 1.64 0.82 - 2.46 30.26 +0.02
22:50 74 72 99 - 11.7 13.4 7 2.95 exactly 3.0 5 1.64 0.82 - 2.46 7 1.64 0.82 - 2.46 30.27 +0.02
23:50 74 72 98 - 11.7 13.4 5 2.95 exactly 3.0 5 1.64 0.82 - 2.46 7 1.64 0.82 - 2.46 30.27 +0.03
00:50 73 72 99 - 7.8 8.9 7 2.95 exactly 3.0 4 1.64 0.82 - 2.46 7 3.28 2.46 - 4.10 30.27 +0.02
02:50 73 72 99 - 9.7 11.2 6 3.28 exactly 3.3 5 1.64 0.82 - 2.46 6 1.64 0.82 - 2.46 30.26 -0.01
03:50 73 72 99 - 11.7 13.4 5 2.95 exactly 3.0 5 1.64 0.82 - 2.46 6 1.64 0.82 - 2.46 30.26 -0.02

Detailed Wave Spectra

Time Water Depth Wave Height Spectral Peak Period Average Wave Period Sampling Interval Wave Record
20:00 102 ft 3.84 ft 6.7 sec 4.6 sec 0.6 sec 2400 sec
21:00 102 ft 3.58 ft 7.7 sec 4.8 sec 0.6 sec 2400 sec
22:00 102 ft 3.48 ft 7.7 sec 5.1 sec 0.6 sec 2400 sec
23:00 102 ft 3.41 ft 6.7 sec 5.3 sec 0.6 sec 2400 sec
00:00 102 ft 3.31 ft 7.1 sec 5.3 sec 0.6 sec 2400 sec
01:00 102 ft 3.35 ft 7.1 sec 5.4 sec 0.6 sec 2400 sec
02:00 102 ft 3.44 ft 7.1 sec 5.2 sec 0.6 sec 2400 sec
03:00 102 ft 3.38 ft 7.1 sec 5.0 sec 0.6 sec 2400 sec
04:00 102 ft 3.51 ft 6.7 sec 5.1 sec 0.6 sec 2400 sec
05:00 102 ft 3.28 ft 7.1 sec 5.1 sec 0.6 sec 2400 sec
06:00 102 ft 3.05 ft 7.1 sec 4.9 sec 0.6 sec 2400 sec
07:00 102 ft 3.12 ft 6.7 sec 4.8 sec 0.6 sec 2400 sec
08:00 102 ft 2.85 ft 6.3 sec 5.0 sec 0.6 sec 2400 sec
09:00 102 ft 2.89 ft 7.7 sec 4.9 sec 0.6 sec 2400 sec
10:00 102 ft 2.69 ft 7.1 sec 5.0 sec 0.6 sec 2400 sec
11:00 102 ft 2.76 ft 7.7 sec 5.0 sec 0.6 sec 2400 sec
12:00 102 ft 2.92 ft 7.7 sec 5.1 sec 0.6 sec 2400 sec
13:00 102 ft 2.79 ft 7.7 sec 5.1 sec 0.6 sec 2400 sec
14:00 102 ft 2.95 ft 7.1 sec 4.7 sec 0.6 sec 2400 sec
15:00 102 ft 2.95 ft 5.6 sec 4.5 sec 0.6 sec 2400 sec
16:00 102 ft 2.76 ft 6.7 sec 4.5 sec 0.6 sec 2400 sec
17:00 102 ft 3.02 ft 7.1 sec 4.2 sec 0.6 sec 2400 sec
18:00 102 ft 3.08 ft 6.7 sec 4.4 sec 0.6 sec 2400 sec
19:00 102 ft 2.99 ft 6.7 sec 4.3 sec 0.6 sec 2400 sec
20:00 102 ft 2.89 ft 6.7 sec 4.5 sec 0.6 sec 2400 sec
21:00 102 ft 2.62 ft 5.9 sec 4.6 sec 0.6 sec 2400 sec
22:00 102 ft 2.69 ft 6.7 sec 4.7 sec 0.6 sec 2400 sec
23:00 102 ft 2.79 ft 6.7 sec 4.6 sec 0.6 sec 2400 sec
00:00 102 ft 2.92 ft 5.3 sec 4.6 sec 0.6 sec 2400 sec
01:00 102 ft 2.95 ft 6.7 sec 4.4 sec 0.6 sec 2400 sec
03:00 102 ft 3.12 ft 5.6 sec 4.6 sec 0.6 sec 2400 sec